Skip Page Navigation
NASA JPL Caltech
NASA Logo - Jet Propulsion Laboratory + View the NASA Portal
+ Center for Near-Earth Object Studies
JPL Home Earth Solar System Stars & Galaxies Technology
JPL Solar System Dynamics
BODIES ORBITS EPHEMERIDES TOOLS PHYSICAL DATA DISCOVERY FAQ SITE MAP
JPL Small-Body Database Browser
Search: [ help ]  
196298 (2003 FQ)
Classification: Main-belt Asteroid          SPK-ID: 2196298
Ephemeris | Orbit Diagram | Orbital Elements | Mission Design | Physical Parameters | Discovery Circumstances ]

[ hide orbit diagram ]

For accurate long-term ephemerides, please instead use our Horizons system.This orbit viewer was implemented using two-body methods, and hence should not be used for determining accurate long-term trajectories (over several years or decades) or planetary encounter circumstances.


Orbital Elements at Epoch 2459200.5 (2020-Dec-17.0) TDB
Reference: JPL 14 (heliocentric ecliptic J2000)
 Element Value Uncertainty (1-sigma)   Units 
e .1578864530726559 4.551e-08  
a 2.40844771907411 1.4664e-08 au
q 2.02818645129857 1.0789e-07 au
i 5.733983193436883 4.8838e-06 deg
node 74.85539688153428 6.7312e-05 deg
peri 163.4943677403561 7.0506e-05 deg
M 216.6972793371297 2.3746e-05 deg
tp 2459743.945750257755
(2022-Jun-13.44575026)
9.2024e-05 TDB
period 1365.225092641819
3.74
1.2469e-05
3.414e-08
d
yr
n .2636927799967193 2.4083e-09 deg/d
Q 2.788708986849649 1.698e-08 au
  Orbit Determination Parameters
   # obs. used (total)      295  
   data-arc span      6991 days (19.14 yr)  
   first obs. used      2001-11-14  
   last obs. used      2021-01-04  
   planetary ephem.      DE431  
   SB-pert. ephem.      SB431-N16  
   condition code      0  
   norm. resid. RMS      .57217  
   source      ORB  
   producer      Otto Matic  
   solution date      2021-Feb-24 19:53:42  

Additional Information
 Earth MOID = 1.01522 au 
 Jupiter MOID = 2.21654 au 
 T_jup = 3.497 
[ show covariance matrix ]

Ephemeris | Orbit Diagram | Orbital Elements | Mission Design | Physical Parameters | Discovery Circumstances ]

Physical Parameter Table
Parameter Symbol Value Units Sigma Reference Notes
absolute magnitude H 16.7   n/a MPO506840  

196298 (2003 FQ)          Discovered 2003-Mar-22 by Ticha, J., Tichy, M. at Klet
Reference: 20081113/Numbers.arcLast Updated: 2008-11-17
Ephemeris | Orbit Diagram | Orbital Elements | Mission Design | Physical Parameters | Discovery Circumstances ]
ABOUT SSD CREDITS/AWARDS PRIVACY/COPYRIGHT GLOSSARY LINKS
FirstGov 2021-Mar-01 04:55 UT
(server date/time)  
NASA Home Page
Site Manager:   Ryan S. Park
Webmaster  Alan B. Chamberlin